Home   Weather   Pasadena   Past weeks

Flag for USA Past Weather in Pasadena, California, USA — Yesterday and Last 2 Weeks

Now
90 °F

Sunny.


Feels Like: 86 °F
Forecast: 58 / 88 °F
Wind: 6 mph from North

Location: Bob Hope Airport

Current Time: Sep 24, 2016 at 2:09:18 PM

Latest Report: Sep 24, 2016 at 12:53 PM


Visibility: 10 mi

Pressure: 29.96 "Hg

Humidity: 10%

Dew Point: 27 °F

Location of PasadenaLocation

Past Weather in Pasadena — Graph

°F

Pasadena Temperature Yesterday

Maximum temperature yesterday: 85 °F (at 1:53 PM)
Minimum temperature yesterday: 57 °F (at 5:53 AM)
Average temperature yesterday: 69 °F

High & Low Weather Summary for the Past Weeks

 TemperatureHumidityPressure
High101 °F (Sep 18, 1:53 PM)90% (Sep 11, 3:53 AM)30.05 "Hg (Sep 11, 3:53 AM)
Low54 °F (Sep 14, 5:53 AM)6% (Sep 18, 2:53 PM)29.78 "Hg (Sep 21, 4:53 PM)
Average71 °F56%29.92 "Hg
* Reported Sep 9 12:53 PM — Sep 24 12:53 PM, Pasadena, Weather by CustomWeather, © 2016

Note: Actual official high and low records may vary slightly from our data, if they occured in-between our weather recording intervals... More about our weather records

Advertising

Pasadena Weather History for the Previous 24 Hours

Scroll right to see more
 ConditionsComfort  
Time TempWeatherWind HumidityBarometerVisibility
12:53 PM
Sat, Sep 24
90 °FSunny.6 mph10%29.96 "Hg10 mi
11:53 AM86 °FSunny.6 mph15%29.97 "Hg10 mi
10:53 AM83 °FSunny.6 mph16%29.99 "Hg10 mi
9:53 AM79 °FSunny.3 mph17%29.99 "Hg10 mi
8:53 AM72 °FSunny.No wind23%29.98 "Hg10 mi
7:53 AM63 °FSunny.No wind33%29.98 "Hg10 mi
6:53 AM59 °FSunny.No wind38%29.98 "Hg10 mi
5:53 AM59 °FClear.No wind42%29.96 "Hg10 mi
4:53 AM59 °FClear.No wind41%29.95 "Hg10 mi
3:53 AM62 °FClear.No wind34%29.94 "Hg10 mi
2:53 AM64 °FClear.6 mph32%29.94 "Hg10 mi
1:53 AM64 °FClear.No wind35%29.94 "Hg10 mi
12:53 AM65 °FClear.3 mph47%29.93 "Hg10 mi
11:53 PM
Fri, Sep 23
66 °FClear.No wind49%29.94 "Hg10 mi
10:53 PM66 °FClear.No wind59%29.94 "Hg10 mi
9:53 PM69 °FClear.No wind51%29.93 "Hg10 mi
8:53 PM71 °FClear.3 mph49%29.92 "Hg10 mi
7:53 PM72 °FClear.No wind49%29.92 "Hg10 mi
6:53 PM73 °FClear.5 mph44%29.91 "Hg10 mi
5:53 PM75 °FSunny.8 mph42%29.91 "Hg10 mi
4:53 PM73 °FSunny.9 mph50%29.91 "Hg10 mi
3:53 PM75 °FSunny.9 mph43%29.90 "Hg10 mi
3:00 PM78 °FSunny.10 mph39%29.93 "Hg10 mi
Weather by CustomWeather, © 2016

See weather overviewHow to use our weather pages